Time,TemperatureF,DewpointF,PressureIn,WindDirection,WindDirectionDegrees,WindSpeedMPH,WindSpeedGustMPH,Humidity,HourlyPrecipIn,Conditions,Clouds,dailyrainin,SoftwareType,DateUTC
2013-09-23 00:22:00,50.0,-99.9,-100.00,North,-999,-999.0,-999.0,-999,-99.99,,,0.07,,2013-09-23 06:22:00,
2013-09-23 00:32:00,50.0,-99.9,-100.00,North,-999,-999.0,-999.0,-999,-99.99,,,0.07,,2013-09-23 06:32:00,
2013-09-23 00:42:00,50.0,-99.9,-100.00,North,-999,-999.0,-999.0,-999,-99.99,,,0.07,,2013-09-23 06:42:00,
2013-09-23 01:22:00,49.0,-99.9,-100.00,North,-999,-999.0,-999.0,-999,0.01,,,0.08,,2013-09-23 07:22:00,
2013-09-23 01:32:00,49.0,-99.9,-100.00,North,-999,-999.0,-999.0,-999,0.01,,,0.08,,2013-09-23 07:32:00,
2013-09-23 01:42:00,49.0,-99.9,-100.00,North,-999,-999.0,-999.0,-999,0.01,,,0.08,,2013-09-23 07:42:00,
2013-09-23 02:11:00,48.0,-99.9,-100.00,North,-999,-999.0,-999.0,-999,0.01,,,0.09,,2013-09-23 08:11:00,
2013-09-23 02:23:00,48.0,-99.9,-100.00,North,-999,-999.0,-999.0,-999,0.01,,,0.09,,2013-09-23 08:23:00,
2013-09-23 02:32:00,48.0,-99.9,-100.00,North,-999,-999.0,-999.0,-999,0.01,,,0.09,,2013-09-23 08:32:00,
2013-09-23 02:42:00,48.0,-99.9,-100.00,North,-999,-999.0,-999.0,-999,0.01,,,0.09,,2013-09-23 08:42:00,
2013-09-23 03:11:00,49.0,-99.9,-100.00,North,-999,-999.0,-999.0,-999,0.00,,,0.10,,2013-09-23 09:11:00,
2013-09-23 03:22:00,49.0,-99.9,-100.00,North,-999,-999.0,-999.0,-999,0.00,,,0.10,,2013-09-23 09:22:00,
2013-09-23 03:33:00,49.0,-99.9,-100.00,North,-999,-999.0,-999.0,-999,0.00,,,0.10,,2013-09-23 09:33:00,
2013-09-23 03:43:00,49.0,-99.9,-100.00,North,-999,-999.0,-999.0,-999,0.00,,,0.10,,2013-09-23 09:43:00,
2013-09-23 04:23:00,49.0,-99.9,-100.00,North,-999,-999.0,-999.0,-999,0.00,,,0.10,,2013-09-23 10:23:00,
2013-09-23 04:33:00,49.0,-99.9,-100.00,North,-999,-999.0,-999.0,-999,0.00,,,0.10,,2013-09-23 10:33:00,
2013-09-23 04:43:00,49.0,-99.9,-100.00,North,-999,-999.0,-999.0,-999,0.00,,,0.10,,2013-09-23 10:43:00,
2013-09-23 05:22:00,47.0,-99.9,-100.00,North,-999,-999.0,-999.0,-999,0.00,,,0.10,,2013-09-23 11:22:00,
2013-09-23 05:33:00,47.0,-99.9,-100.00,North,-999,-999.0,-999.0,-999,0.00,,,0.10,,2013-09-23 11:33:00,
2013-09-23 05:42:00,47.0,-99.9,-100.00,North,-999,-999.0,-999.0,-999,0.00,,,0.10,,2013-09-23 11:42:00,
2013-09-23 06:22:00,48.0,-99.9,-100.00,North,-999,-999.0,-999.0,-999,0.00,,,0.10,,2013-09-23 12:22:00,
2013-09-23 06:32:00,48.0,-99.9,-100.00,North,-999,-999.0,-999.0,-999,0.00,,,0.10,,2013-09-23 12:32:00,
2013-09-23 06:42:00,48.0,-99.9,-100.00,North,-999,-999.0,-999.0,-999,0.00,,,0.10,,2013-09-23 12:42:00,
2013-09-23 07:11:00,47.0,-99.9,-100.00,North,-999,-999.0,-999.0,-999,0.01,,,0.11,,2013-09-23 13:11:00,
2013-09-23 07:22:00,47.0,-99.9,-100.00,North,-999,-999.0,-999.0,-999,0.01,,,0.11,,2013-09-23 13:22:00,
2013-09-23 07:32:00,47.0,-99.9,-100.00,North,-999,-999.0,-999.0,-999,0.01,,,0.11,,2013-09-23 13:32:00,
2013-09-23 07:42:00,47.0,-99.9,-100.00,North,-999,-999.0,-999.0,-999,0.01,,,0.11,,2013-09-23 13:42:00,
2013-09-23 08:22:00,47.0,-99.9,-100.00,North,-999,-999.0,-999.0,-999,-99.99,,,0.10,,2013-09-23 14:22:00,
2013-09-23 08:33:00,47.0,-99.9,-100.00,North,-999,-999.0,-999.0,-999,-99.99,,,0.10,,2013-09-23 14:33:00,
2013-09-23 08:43:00,47.0,-99.9,-100.00,North,-999,-999.0,-999.0,-999,-99.99,,,0.10,,2013-09-23 14:43:00,
2013-09-23 09:22:00,49.0,-99.9,-100.00,North,-999,-999.0,-999.0,-999,0.01,,,0.11,,2013-09-23 15:22:00,
2013-09-23 09:33:00,49.0,-99.9,-100.00,North,-999,-999.0,-999.0,-999,0.01,,,0.11,,2013-09-23 15:33:00,
2013-09-23 09:44:00,49.0,-99.9,-100.00,North,-999,-999.0,-999.0,-999,0.01,,,0.11,,2013-09-23 15:44:00,
2013-09-23 11:12:00,52.0,-99.9,-100.00,North,-999,-999.0,-999.0,-999,-99.99,,,0.10,,2013-09-23 17:12:00,
2013-09-23 11:24:00,52.0,-99.9,-100.00,North,-999,-999.0,-999.0,-999,-99.99,,,0.10,,2013-09-23 17:24:00,
2013-09-23 11:34:00,52.0,-99.9,-100.00,North,-999,-999.0,-999.0,-999,-99.99,,,0.10,,2013-09-23 17:34:00,
2013-09-23 11:42:00,52.0,-99.9,-100.00,North,-999,-999.0,-999.0,-999,-99.99,,,0.10,,2013-09-23 17:42:00,
2013-09-23 12:22:00,53.0,-99.9,-100.00,North,-999,-999.0,-999.0,-999,0.00,,,0.10,,2013-09-23 18:22:00,
2013-09-23 12:33:00,53.0,-99.9,-100.00,North,-999,-999.0,-999.0,-999,0.00,,,0.10,,2013-09-23 18:33:00,
2013-09-23 12:42:00,53.0,-99.9,-100.00,North,-999,-999.0,-999.0,-999,0.00,,,0.10,,2013-09-23 18:42:00,
2013-09-23 13:23:00,50.0,-99.9,-100.00,North,-999,-999.0,-999.0,-999,0.02,,,-99.99,,2013-09-23 19:23:00,
2013-09-23 13:33:00,50.0,-99.9,-100.00,North,-999,-999.0,-999.0,-999,0.02,,,-99.99,,2013-09-23 19:33:00,
2013-09-23 13:42:00,50.0,-99.9,-100.00,North,-999,-999.0,-999.0,-999,0.02,,,-99.99,,2013-09-23 19:42:00,
2013-09-23 14:22:00,52.0,-99.9,-100.00,North,-999,-999.0,-999.0,-999,0.00,,,-99.99,,2013-09-23 20:22:00,
2013-09-23 14:32:00,52.0,-99.9,-100.00,North,-999,-999.0,-999.0,-999,0.00,,,-99.99,,2013-09-23 20:32:00,
2013-09-23 14:42:00,52.0,-99.9,-100.00,North,-999,-999.0,-999.0,-999,0.00,,,-99.99,,2013-09-23 20:42:00,
2013-09-23 16:14:00,52.0,-99.9,-100.00,North,-999,-999.0,-999.0,-999,-99.99,,,0.12,,2013-09-23 22:14:00,
2013-09-23 16:24:00,52.0,-99.9,-100.00,North,-999,-999.0,-999.0,-999,-99.99,,,0.12,,2013-09-23 22:24:00,
2013-09-23 16:33:00,52.0,-99.9,-100.00,North,-999,-999.0,-999.0,-999,-99.99,,,0.12,,2013-09-23 22:33:00,
2013-09-23 16:43:00,52.0,-99.9,-100.00,North,-999,-999.0,-999.0,-999,-99.99,,,0.12,,2013-09-23 22:43:00,
2013-09-23 18:22:00,51.0,-99.9,-100.00,North,-999,-999.0,-999.0,-999,-99.99,,,0.05,,2013-09-24 00:22:00,
2013-09-23 18:32:00,51.0,-99.9,-100.00,North,-999,-999.0,-999.0,-999,-99.99,,,0.05,,2013-09-24 00:32:00,
2013-09-23 18:43:00,51.0,-99.9,-100.00,North,-999,-999.0,-999.0,-999,-99.99,,,0.05,,2013-09-24 00:43:00,
2013-09-23 19:22:00,52.0,-99.9,-100.00,North,-999,-999.0,-999.0,-999,0.00,,,0.06,,2013-09-24 01:22:00,
2013-09-23 19:32:00,52.0,-99.9,-100.00,North,-999,-999.0,-999.0,-999,0.00,,,0.06,,2013-09-24 01:32:00,
2013-09-23 19:43:00,52.0,-99.9,-100.00,North,-999,-999.0,-999.0,-999,0.00,,,0.06,,2013-09-24 01:43:00,
2013-09-23 20:23:00,50.0,-99.9,-100.00,North,-999,-999.0,-999.0,-999,0.00,,,0.06,,2013-09-24 02:23:00,
2013-09-23 20:32:00,50.0,-99.9,-100.00,North,-999,-999.0,-999.0,-999,0.00,,,0.06,,2013-09-24 02:32:00,
2013-09-23 20:43:00,50.0,-99.9,-100.00,North,-999,-999.0,-999.0,-999,0.00,,,0.06,,2013-09-24 02:43:00,
2013-09-23 20:45:00,50.0,-99.9,-100.00,North,-999,-999.0,-999.0,-999,0.00,,,0.05,,2013-09-24 02:45:00,
2013-09-23 21:12:00,50.0,-99.9,-100.00,North,-999,-999.0,-999.0,-999,0.00,,,0.05,,2013-09-24 03:12:00,
2013-09-23 21:22:00,50.0,-99.9,-100.00,North,-999,-999.0,-999.0,-999,0.00,,,0.05,,2013-09-24 03:22:00,
2013-09-23 21:35:00,50.0,-99.9,-100.00,North,-999,-999.0,-999.0,-999,0.00,,,0.05,,2013-09-24 03:35:00,
2013-09-23 23:23:00,49.0,-99.9,-100.00,North,-999,-999.0,-999.0,-999,-99.99,,,0.05,,2013-09-24 05:23:00,
2013-09-23 23:34:00,49.0,-99.9,-100.00,North,-999,-999.0,-999.0,-999,-99.99,,,0.05,,2013-09-24 05:34:00,
2013-09-23 23:43:00,49.0,-99.9,-100.00,North,-999,-999.0,-999.0,-999,-99.99,,,0.05,,2013-09-24 05:43:00,